Regional Weather Roundup
Issued by NWS

Home | Current Version | Previous Version | Graphics & Text | Print | Product List | Glossary On
Versions: 1 2 3 4 5 6 7 8 9 10 11 12 13 14 15 16 17 18 19 20 21 22 23 24 25 26 27 28 29 30 31 32 33 34 35 36 37 38 39 40 41 42 43 44 45 46 47 48 49 50
000
ASUS45 KBOU 280707
RWRCO

WEATHER ROUNDUP FOR COLORADO
NATIONAL WEATHER SERVICE DENVER/BOULDER CO
100 AM MDT MON JUL 28 2014

NOTE: "FAIR" INDICATES FEW OR NO CLOUDS BELOW 12000 FEET WITH NO
SIGNIFICANT WEATHER AND/OR OBSTRUCTIONS TO VISIBILITY.

COZ001>005-013-030-031-280800-
...NORTHWEST COLORADO...

CITY           SKY/WX    TMP DP  RH WIND       PRES   REMARKS
CRAIG          PTCLDY    52  46  80 E3        30.34R
HAYDEN         PTCLDY    64  43  45 S6        30.36R
MEEKER         MOCLDY    65  46  50 NE5       30.34R
MOUNT WERNER   NOT AVBL
STEAMBOAT SPGS PTCLDY    60  45  57 CALM      30.40R
WALDEN         CLEAR     54  45  71 SE3       30.50S
$$

COZ006>008-011-280800-
...WEST CENTRAL VALLEYS...

CITY           SKY/WX    TMP DP  RH WIND       PRES   REMARKS
GRAND JUNCTION CLOUDY    76  50  40 E15       30.24R
MONTROSE       MOCLDY    70  51  51 S5        30.36R
EAGLE          PTCLDY    63  50  63 CALM      30.42R
RIFLE          MOCLDY    70  46  42 SE5       30.30R
DELTA          MOCLDY    78  50  38 W3        30.31R
NUCLA          MOCLDY    70  50  49 SW3       30.41R
$$

COZ017>023-064>068-280800-
...SOUTHWEST COLORADO...

CITY           SKY/WX    TMP DP  RH WIND       PRES   REMARKS
DURANGO        CLOUDY    61  58  90 SW5       30.47R
CORTEZ         MOCLDY    67  57  70 CALM      30.39R
PAGOSA SPRINGS CLOUDY    59  55  85 CALM      30.55S
TELLURIDE      MOCLDY    61  45  55 NE3       30.59R
WOLF CREEK PAS NOT AVBL
$$

COZ009-010-012-014-032>034-037-058>063-280800-
...CENTRAL COLORADO...

CITY           SKY/WX    TMP DP  RH WIND       PRES   REMARKS
ASPEN          MOCLDY    58  44  60 SW7       30.47R
BUENA VISTA    CLOUDY    56  52  86 CALM      30.59R
COPPER MTN     PTCLDY    54  36  50 S12       30.81R
BERTHOUD PASS  FAIR      43  30  61 SE14      30.86S
COTTONWOOD PAS CLOUDY    54  50  87 SE5       30.70R
GUNNISON       CLOUDY    61  46  59 N7        30.54R
KREMMLING      PTCLDY    55  45  67 SE3       30.48R
LEADVILLE      PTCLDY    48  46  93 SE5       30.66S
MONARCH PASS   CLOUDY    45  41  87 E12       30.92S
SALIDA         CLOUDY   N/A N/A N/A N3        30.62S
SUNLIGHT       MOCLDY    57  41  54 CALM      30.73R
WILKERSON PASS NOT AVBL
$$

COZ069>075-280800-
...SAN LUIS VALLEY/SANGRE DE CRISTO MOUNTAINS...

CITY           SKY/WX    TMP DP  RH WIND       PRES   REMARKS
ALAMOSA        CLOUDY    60  55  83 E7        30.50S
LA VETA PASS   CLOUDY    48  46  93 E9        30.70F
SAGUACHE       DRIZZLE   61  52  72 CALM      30.54S
$$

COZ035-036-038>040-280800-
...NORTHERN COLORADO FRONT RANGE...

CITY           SKY/WX    TMP DP  RH WIND       PRES   REMARKS
DENVER INTL AP MOCLDY    67  57  70 S12       30.36S
DMNS CITY PARK   N/A     66  56  69 SW6       30.35F
AURORA         PTCLDY    67  57  71 S18       30.38F
FRONT RANGE AP NOT AVBL
ERIE MUNI ARPT PTCLDY    64  55  71 S3        30.34S
BOULDER MUN AP PTCLDY    64  54  68 NW3       30.35S
CENTENNIAL     MOCLDY    65  55  70 S20G28    30.39S
BROOMFIELD     PTCLDY    64  54  68 SE3       30.38S
FORT COLLINS   PTCLDY    66  57  72 S5        30.36S
LONGMONT       PTCLDY    65  59  80 CALM      30.36S
$$

COZ041-046-047-076>085-087-088-280800-
...PIKES PEAK/PALMER DIVIDE AND SOUTHERN FOOTHILLS...

CITY           SKY/WX    TMP DP  RH WIND       PRES   REMARKS
COLO. SPRINGS  CLOUDY    61  57  87 S3        30.49S
A. F. ACADEMY  CLOUDY    59  59 100 S8        30.50S
ELLICOTT       LGT RAIN  59  57  93 S23G32    30.42F
FALCON         CLOUDY    57  56  94 SW10      30.52F
FORT CARSON    CLOUDY    62  59  88 VRB2      30.47S
LIMON          CLOUDY    64  60  87 S8        30.41F
MONUMENT HILL  CLOUDY    55  52  88 S17       30.47F
TRINIDAD       CLOUDY    65  59  81 W7        30.44S
$$

COZ042>045-048>051-090-091-280800-
...NORTHEAST COLORADO...

CITY           SKY/WX    TMP DP  RH WIND       PRES   REMARKS
GREELEY ARPT   MOCLDY    66  57  72 SE3       30.34S
AKRON          MOCLDY    66  47  50 SE7       30.35S
BURLINGTON     CLOUDY    66  52  60 S8        30.35S
WRAY             N/A     70  47  43 CALM      30.32S
STERLING       MOCLDY    72  52  49 S8        30.32S
HOLYOKE        CLEAR     63  55  77 E6        30.33S
FORT MORGAN    MOCLDY    67  51  56 CALM      30.35S
$$

COZ086-089-092>099-280800-
...SOUTHEAST COLORADO...

CITY           SKY/WX    TMP DP  RH WIND       PRES   REMARKS
PUEBLO         LGT RAIN  64  64 100 W5        30.41R
LA JUNTA       LGT RAIN  66  64  93 N10       30.37S
LAMAR          CLOUDY    73  64  73 CALM      30.31S
SPRINGFIELD      N/A     68  60  75 W5        30.35F
$$


USA.gov is the U.S. government's official web portal to all federal, state and local government web resources and services.